Time,TemperatureF,DewpointF,PressureIn,WindDirection,WindDirectionDegrees,WindSpeedMPH,WindSpeedGustMPH,Humidity,HourlyPrecipIn,Conditions,Clouds,dailyrainin,SoftwareType,DateUTC
2013-02-21 00:02:00,21.7,14.0,29.73,ESE,105,3.0,14.0,72,0.00,,,0.00,weatherlink.com 1.10,2013-02-21 05:02:00,
2013-02-21 00:17:00,21.7,14.0,29.74,WNW,282,8.0,19.0,71,0.00,,,0.00,weatherlink.com 1.10,2013-02-21 05:17:00,
2013-02-21 00:33:00,21.8,14.0,29.74,NW,307,9.0,18.0,71,0.00,,,0.00,weatherlink.com 1.10,2013-02-21 05:33:00,
2013-02-21 00:48:00,21.7,13.0,29.75,West,281,5.0,18.0,70,0.00,,,0.00,weatherlink.com 1.10,2013-02-21 05:48:00,
2013-02-21 01:03:00,21.6,13.0,29.75,West,263,7.0,18.0,70,0.00,,,0.00,weatherlink.com 1.10,2013-02-21 06:03:00,
2013-02-21 01:18:00,21.6,14.0,29.75,West,264,4.0,15.0,71,0.00,,,0.00,weatherlink.com 1.10,2013-02-21 06:18:00,
2013-02-21 01:33:00,21.7,14.0,29.74,NW,309,10.0,16.0,71,0.00,,,0.00,weatherlink.com 1.10,2013-02-21 06:33:00,
2013-02-21 01:48:00,21.8,13.0,29.73,WNW,293,9.0,18.0,70,0.00,,,0.00,weatherlink.com 1.10,2013-02-21 06:48:00,
2013-02-21 02:03:00,22.0,13.0,29.74,WSW,250,5.0,19.0,68,0.00,,,0.00,weatherlink.com 1.10,2013-02-21 07:03:00,
2013-02-21 02:18:00,22.0,13.0,29.74,WNW,290,10.0,20.0,67,0.00,,,0.00,weatherlink.com 1.10,2013-02-21 07:18:00,
2013-02-21 02:33:00,21.9,12.0,29.75,West,264,3.0,20.0,67,0.00,,,0.00,weatherlink.com 1.10,2013-02-21 07:33:00,
2013-02-21 02:48:00,21.7,12.0,29.75,West,266,4.0,17.0,67,0.00,,,0.00,weatherlink.com 1.10,2013-02-21 07:48:00,
2013-02-21 03:03:00,21.5,12.0,29.75,West,274,7.0,16.0,67,0.00,,,0.00,weatherlink.com 1.10,2013-02-21 08:03:00,
2013-02-21 03:18:00,21.3,12.0,29.75,WNW,287,3.0,18.0,68,0.00,,,0.00,weatherlink.com 1.10,2013-02-21 08:18:00,
2013-02-21 03:33:00,21.3,13.0,29.76,West,266,5.0,13.0,69,0.00,,,0.00,weatherlink.com 1.10,2013-02-21 08:33:00,
2013-02-21 03:48:00,21.0,13.0,29.76,West,263,1.0,10.0,70,0.00,,,0.00,weatherlink.com 1.10,2013-02-21 08:48:00,
2013-02-21 04:03:00,20.8,13.0,29.76,WSW,250,3.0,7.0,71,0.00,,,0.00,weatherlink.com 1.10,2013-02-21 09:03:00,
2013-02-21 04:18:00,20.4,13.0,29.76,SW,221,1.0,7.0,72,0.00,,,0.00,weatherlink.com 1.10,2013-02-21 09:18:00,
2013-02-21 04:33:00,20.1,12.0,29.75,ESE,114,0.0,9.0,72,0.00,,,0.00,weatherlink.com 1.10,2013-02-21 09:33:00,
2013-02-21 04:48:00,19.9,13.0,29.77,West,273,4.0,8.0,73,0.00,,,0.00,weatherlink.com 1.10,2013-02-21 09:48:00,
2013-02-21 05:03:00,19.9,13.0,29.77,SE,129,1.0,9.0,73,0.00,,,0.00,weatherlink.com 1.10,2013-02-21 10:03:00,
2013-02-21 05:18:00,19.3,12.0,29.78,SE,145,0.0,7.0,73,0.00,,,0.00,weatherlink.com 1.10,2013-02-21 10:18:00,
2013-02-21 05:33:00,19.4,11.0,29.79,NNW,328,4.0,12.0,70,0.00,,,0.00,weatherlink.com 1.10,2013-02-21 10:33:00,
2013-02-21 05:48:00,18.7,11.0,29.79,SE,141,0.0,4.0,72,0.00,,,0.00,weatherlink.com 1.10,2013-02-21 10:48:00,
2013-02-21 06:03:00,18.4,11.0,29.79,WSW,257,3.0,8.0,72,0.00,,,0.00,weatherlink.com 1.10,2013-02-21 11:03:00,
2013-02-21 06:18:00,18.1,11.0,29.79,SW,227,5.0,9.0,72,0.00,,,0.00,weatherlink.com 1.10,2013-02-21 11:18:00,
2013-02-21 06:33:00,18.3,10.0,29.79,NNE,29,3.0,9.0,71,0.00,,,0.00,weatherlink.com 1.10,2013-02-21 11:33:00,
2013-02-21 06:48:00,18.4,10.0,29.80,WNW,295,4.0,11.0,70,0.00,,,0.00,weatherlink.com 1.10,2013-02-21 11:48:00,
2013-02-21 07:03:00,18.6,9.0,29.81,NW,314,7.0,11.0,67,0.00,,,0.00,weatherlink.com 1.10,2013-02-21 12:03:00,
2013-02-21 07:18:00,18.9,9.0,29.82,SSW,203,3.0,19.0,64,0.00,,,0.00,weatherlink.com 1.10,2013-02-21 12:18:00,
2013-02-21 07:34:00,19.1,8.0,29.81,NW,316,9.0,18.0,62,0.00,,,0.00,weatherlink.com 1.10,2013-02-21 12:34:00,
2013-02-21 07:49:00,19.0,8.0,29.82,WSW,256,13.0,17.0,62,0.00,,,0.00,weatherlink.com 1.10,2013-02-21 12:49:00,
2013-02-21 08:04:00,18.6,8.0,29.82,WSW,248,4.0,19.0,63,0.00,,,0.00,weatherlink.com 1.10,2013-02-21 13:04:00,
2013-02-21 08:19:00,19.4,8.0,29.81,West,274,7.0,15.0,62,0.00,,,0.00,weatherlink.com 1.10,2013-02-21 13:19:00,
2013-02-21 08:34:00,20.2,9.0,29.79,WSW,250,5.0,16.0,61,0.00,,,0.00,weatherlink.com 1.10,2013-02-21 13:34:00,
2013-02-21 08:49:00,20.8,8.0,29.80,North,8,1.0,15.0,59,0.00,,,0.00,weatherlink.com 1.10,2013-02-21 13:49:00,
2013-02-21 09:04:00,21.3,9.0,29.80,NE,45,5.0,14.0,59,0.00,,,0.00,weatherlink.com 1.10,2013-02-21 14:04:00,
2013-02-21 09:19:00,21.8,9.0,29.81,WNW,287,1.0,10.0,58,0.00,,,0.00,weatherlink.com 1.10,2013-02-21 14:19:00,
2013-02-21 09:34:00,22.1,9.0,29.80,WNW,301,5.0,25.0,57,0.00,,,0.00,weatherlink.com 1.10,2013-02-21 14:34:00,
2013-02-21 09:49:00,22.7,9.0,29.81,WSW,243,9.0,14.0,55,0.00,,,0.00,weatherlink.com 1.10,2013-02-21 14:49:00,
2013-02-21 10:04:00,23.0,10.0,29.81,West,263,7.0,14.0,57,0.00,,,0.00,weatherlink.com 1.10,2013-02-21 15:04:00,
2013-02-21 10:19:00,24.1,10.0,29.82,West,281,4.0,20.0,55,0.00,,,0.00,weatherlink.com 1.10,2013-02-21 15:19:00,
2013-02-21 10:34:00,24.8,11.0,29.82,WNW,288,4.0,13.0,55,0.00,,,0.00,weatherlink.com 1.10,2013-02-21 15:34:00,
2013-02-21 10:49:00,24.8,9.0,29.82,West,267,4.0,17.0,52,0.00,,,0.00,weatherlink.com 1.10,2013-02-21 15:49:00,
2013-02-21 11:04:00,24.0,9.0,29.82,West,278,5.0,23.0,54,0.00,,,0.00,weatherlink.com 1.10,2013-02-21 16:04:00,
2013-02-21 11:19:00,23.9,10.0,29.82,NNW,340,6.0,18.0,56,0.00,,,0.00,weatherlink.com 1.10,2013-02-21 16:19:00,
2013-02-21 11:34:00,25.0,10.0,29.83,SW,228,11.0,20.0,53,0.00,,,0.00,weatherlink.com 1.10,2013-02-21 16:34:00,
2013-02-21 11:49:00,25.0,10.0,29.83,WSW,238,6.0,22.0,52,0.00,,,0.00,weatherlink.com 1.10,2013-02-21 16:49:00,
2013-02-21 12:04:00,25.3,10.0,29.83,NW,307,11.0,15.0,52,0.00,,,0.00,weatherlink.com 1.10,2013-02-21 17:04:00,
2013-02-21 12:19:00,26.2,11.0,29.83,NW,309,6.0,18.0,54,0.00,,,0.00,weatherlink.com 1.10,2013-02-21 17:19:00,
2013-02-21 12:34:00,25.9,10.0,29.83,WNW,284,9.0,17.0,51,0.00,,,0.00,weatherlink.com 1.10,2013-02-21 17:34:00,
2013-02-21 12:49:00,26.5,10.0,29.83,WSW,245,17.0,22.0,51,0.00,,,0.00,weatherlink.com 1.10,2013-02-21 17:49:00,
2013-02-21 13:04:00,26.4,11.0,29.83,WSW,240,7.0,23.0,52,0.00,,,0.00,weatherlink.com 1.10,2013-02-21 18:04:00,
2013-02-21 13:19:00,26.8,11.0,29.83,West,260,15.0,20.0,52,0.00,,,0.00,weatherlink.com 1.10,2013-02-21 18:19:00,
2013-02-21 13:34:00,27.5,11.0,29.84,West,270,3.0,15.0,51,0.00,,,0.00,weatherlink.com 1.10,2013-02-21 18:34:00,
2013-02-21 13:49:00,27.1,11.0,29.84,West,263,7.0,21.0,51,0.00,,,0.00,weatherlink.com 1.10,2013-02-21 18:49:00,
2013-02-21 14:05:00,27.6,12.0,29.85,WNW,285,4.0,17.0,52,0.00,,,0.00,weatherlink.com 1.10,2013-02-21 19:05:00,
2013-02-21 14:19:00,27.1,11.0,29.86,West,270,11.0,25.0,51,0.00,,,0.00,weatherlink.com 1.10,2013-02-21 19:19:00,
2013-02-21 14:35:00,26.3,11.0,29.86,WNW,301,11.0,21.0,53,0.00,,,0.00,weatherlink.com 1.10,2013-02-21 19:35:00,
2013-02-21 14:49:00,26.2,11.0,29.88,SW,224,6.0,26.0,54,0.00,,,0.00,weatherlink.com 1.10,2013-02-21 19:49:00,
2013-02-21 15:04:00,26.4,12.0,29.88,WNW,299,7.0,21.0,54,0.00,,,0.00,weatherlink.com 1.10,2013-02-21 20:04:00,
2013-02-21 15:19:00,25.8,12.0,29.89,WSW,240,10.0,21.0,55,0.00,,,0.00,weatherlink.com 1.10,2013-02-21 20:19:00,
2013-02-21 15:34:00,25.7,12.0,29.90,WNW,298,17.0,19.0,56,0.00,,,0.00,weatherlink.com 1.10,2013-02-21 20:34:00,
2013-02-21 15:49:00,25.6,12.0,29.91,WNW,301,7.0,17.0,56,0.00,,,0.00,weatherlink.com 1.10,2013-02-21 20:49:00,
2013-02-21 16:04:00,25.1,12.0,29.91,North,356,9.0,20.0,57,0.00,,,0.00,weatherlink.com 1.10,2013-02-21 21:04:00,
2013-02-21 16:20:00,24.8,11.0,29.93,West,266,8.0,24.0,57,0.00,,,0.00,weatherlink.com 1.10,2013-02-21 21:20:00,
2013-02-21 16:35:00,24.4,12.0,29.93,West,273,6.0,14.0,59,0.00,,,0.00,weatherlink.com 1.10,2013-02-21 21:35:00,
2013-02-21 16:50:00,24.0,12.0,29.95,WNW,290,3.0,18.0,60,0.00,,,0.00,weatherlink.com 1.10,2013-02-21 21:50:00,
2013-02-21 17:05:00,23.6,12.0,29.96,East,100,4.0,19.0,61,0.00,,,0.00,weatherlink.com 1.10,2013-02-21 22:05:00,
2013-02-21 17:20:00,23.2,13.0,29.97,WNW,288,7.0,23.0,64,0.00,,,0.00,weatherlink.com 1.10,2013-02-21 22:20:00,
2013-02-21 17:35:00,22.8,13.0,29.99,WNW,290,5.0,15.0,65,0.00,,,0.00,weatherlink.com 1.10,2013-02-21 22:35:00,
2013-02-21 17:50:00,22.6,13.0,30.01,West,281,7.0,18.0,66,0.00,,,0.00,weatherlink.com 1.10,2013-02-21 22:50:00,
2013-02-21 18:05:00,22.4,13.0,30.02,WNW,290,2.0,13.0,67,0.00,,,0.00,weatherlink.com 1.10,2013-02-21 23:05:00,
2013-02-21 18:20:00,22.6,13.0,30.03,SW,226,5.0,17.0,67,0.00,,,0.00,weatherlink.com 1.10,2013-02-21 23:20:00,
2013-02-21 18:35:00,22.5,13.0,30.04,West,281,6.0,14.0,68,0.00,,,0.00,weatherlink.com 1.10,2013-02-21 23:35:00,
2013-02-21 18:50:00,22.5,13.0,30.05,West,263,4.0,16.0,68,0.00,,,0.00,weatherlink.com 1.10,2013-02-21 23:50:00,
2013-02-21 19:05:00,22.2,13.0,30.07,West,274,8.0,15.0,69,0.00,,,0.00,weatherlink.com 1.10,2013-02-22 00:05:00,
2013-02-21 19:20:00,22.0,14.0,30.08,West,279,7.0,11.0,71,0.00,,,0.00,weatherlink.com 1.10,2013-02-22 00:20:00,
2013-02-21 19:35:00,21.9,14.0,30.08,WNW,300,13.0,14.0,71,0.00,,,0.00,weatherlink.com 1.10,2013-02-22 00:35:00,
2013-02-21 19:50:00,21.8,14.0,30.09,WNW,297,7.0,13.0,72,0.00,,,0.00,weatherlink.com 1.10,2013-02-22 00:50:00,
2013-02-21 20:05:00,22.3,15.0,30.09,West,281,6.0,10.0,72,0.00,,,0.00,weatherlink.com 1.10,2013-02-22 01:05:00,
2013-02-21 20:20:00,22.4,15.0,30.10,NW,308,4.0,17.0,72,0.00,,,0.00,weatherlink.com 1.10,2013-02-22 01:20:00,
2013-02-21 20:35:00,22.5,15.0,30.11,NW,308,3.0,16.0,72,0.00,,,0.00,weatherlink.com 1.10,2013-02-22 01:35:00,
2013-02-21 20:50:00,22.4,15.0,30.12,NW,307,10.0,17.0,73,0.00,,,0.00,weatherlink.com 1.10,2013-02-22 01:50:00,
2013-02-21 21:05:00,22.5,15.0,30.12,WNW,290,5.0,19.0,73,0.00,,,0.00,weatherlink.com 1.10,2013-02-22 02:05:00,
2013-02-21 21:20:00,22.5,15.0,30.12,WNW,299,3.0,12.0,73,0.00,,,0.00,weatherlink.com 1.10,2013-02-22 02:20:00,
2013-02-21 21:35:00,22.6,15.0,30.13,West,281,4.0,12.0,73,0.00,,,0.00,weatherlink.com 1.10,2013-02-22 02:35:00,
2013-02-21 21:50:00,22.6,15.0,30.14,NNW,345,0.0,11.0,73,0.00,,,0.00,weatherlink.com 1.10,2013-02-22 02:50:00,
2013-02-21 22:05:00,22.5,15.0,30.13,East,79,2.0,6.0,73,0.00,,,0.00,weatherlink.com 1.10,2013-02-22 03:05:00,
2013-02-21 22:20:00,22.8,15.0,30.15,NNW,335,0.0,6.0,73,0.00,,,0.00,weatherlink.com 1.10,2013-02-22 03:20:00,
2013-02-21 22:35:00,22.5,15.0,30.17,WNW,290,4.0,4.0,74,0.00,,,0.00,weatherlink.com 1.10,2013-02-22 03:35:00,
2013-02-21 22:50:00,22.5,15.0,30.18,West,273,2.0,9.0,74,0.00,,,0.00,weatherlink.com 1.10,2013-02-22 03:50:00,
2013-02-21 23:05:00,22.1,15.0,30.19,WSW,248,5.0,5.0,75,0.00,,,0.00,weatherlink.com 1.10,2013-02-22 04:05:00,
2013-02-21 23:21:00,22.2,16.0,30.20,West,281,6.0,10.0,76,0.00,,,0.00,weatherlink.com 1.10,2013-02-22 04:21:00,
2013-02-21 23:36:00,22.3,16.0,30.21,West,270,3.0,14.0,76,0.00,,,0.00,weatherlink.com 1.10,2013-02-22 04:36:00,
2013-02-21 23:51:00,22.3,16.0,30.23,West,259,5.0,10.0,76,0.00,,,0.00,weatherlink.com 1.10,2013-02-22 04:51:00,